Regional Weather Roundup
Issued by NWS

Home | Current Version | Previous Version | Text Only | Print | Product List | Glossary On
Versions: 1 2 3 4 5 6 7 8 9 10 11 12 13 14 15 16 17 18 19 20 21 22 23 24 25 26 27 28 29 30 31 32 33 34 35 36 37 38 39 40 41 42 43 44 45 46 47 48 49 50
000
ASUS44 KFWD 202215
RWRTX
NORTH TEXAS HOURLY WEATHER ROUNDUP
NATIONAL WEATHER SERVICE FORT WORTH TX
500 PM CDT MON OCT 20 2014

NOTE: "FAIR" INDICATES FEW OR NO CLOUDS BELOW 12,000 FEET WITH NO
SIGNIFICANT WEATHER AND/OR OBSTRUCTIONS TO VISIBILITY.

TXZ118-119-202300-
DALLAS/FORT WORTH METROPLEX

CITY           SKY/WX    TMP DP  RH WIND       PRES   REMARKS
DFW AIRPORT    MOSUNNY   80  59  48 S6        30.00F
DALLAS LOVE    MOSUNNY   82  59  45 E6        30.01S
FTW MEACHAM    MOSUNNY   82  59  45 SE8       30.00S
DAL-EXECUTIVE  SUNNY     79  60  52 SE5       30.01S
FTW-ALLIANCE   MOSUNNY   80  58  46 E6        30.00S
FTW-NAS-JRB    MOSUNNY   83  57  41 S6        30.04F
FTW-SPINKS     MOSUNNY   81  57  44 SE5       30.02F
ARLINGTON      SUNNY     82  55  39 E5        30.01S
GRAND PRAIRIE  SUNNY     81  63  54 MISG      30.02F
ADDISON        MOSUNNY   81  59  47 SE3       30.02S
MESQUITE       SUNNY     79  57  47 CALM      30.02S
LANCASTER      SUNNY     80  56  44 E7        30.02S
$$

TXZ091>094-102>105-117-120-121-131>134-202300-
NORTH CENTRAL TEXAS

CITY           SKY/WX    TMP DP  RH WIND       PRES   REMARKS
SHRMAN/DENISON SUNNY     80  62  54 CALM      30.02S
GAINESVILLE    PTSUNNY   81  60  48 MISG      30.03S
BOWIE          MOSUNNY   82  57  42 S3        30.01S
BRIDGEPORT     CLOUDY    81  58  46 NE3       30.02S
DECATUR        MOSUNNY   80  57  45 E3        30.02R
DENTON         SUNNY     81  58  45 CALM      30.00S
MCKINNEY       MOSUNNY   79  60  52 SE6       30.01S
GREENVILLE     SUNNY     79  57  47 CALM      30.02S
ROCKWALL       MOSUNNY   80  60  51 SE3       30.01S
TERRELL        SUNNY     81  60  48 E3        30.02S
WAXAHACHIE     MOSUNNY   81  56  42 CALM      30.02S
CLEBURNE       MOSUNNY   81  59  47 SE6       30.03S
GRANBURY       SUNNY     82  56  40 E6        30.01F
$$

TXZ083>090-098>101-113>116-127>130-139>142-154-155-202300-
WESTERN NORTH TEXAS

CITY           SKY/WX    TMP DP  RH WIND       PRES   REMARKS
WICHITA FALLS  MOSUNNY   82  57  42 CALM      29.99S
WF-KICKAPOO    MOSUNNY   82  56  39 S3        30.00F
VERNON         PTSUNNY   84  54  34 SE5       30.00S
ABILENE        MOSUNNY   81  53  37 E6        30.02F
ABILENE-DYESS  SUNNY     81  55  40 E8        30.01F
BRECKENRIDGE   SUNNY     81  56  41 SE7       30.01S HAZE
GRAHAM         SUNNY     82  58  43 CALM      29.99S
MINERAL WELLS  MOSUNNY   82  56  40 NE3       29.99F
STEPHENVILLE   SUNNY     80  54  39 E7        30.04F
COMANCHE       SUNNY     80  57  44 E5        30.02F
BROWNWOOD      SUNNY     79  55  44 CALM      30.02S
COLEMAN        SUNNY     78  55  45 CALM      30.03F
BRADY          SUNNY     77  54  44 E3        30.02F
$$

TXZ143>147-156>162-174-175-202300-
CENTRAL TEXAS

CITY           SKY/WX    TMP DP  RH WIND       PRES   REMARKS
WACO           SUNNY     80  58  46 E6        30.00F
WACO-TSTC      SUNNY     81  59  47 CALM      30.00F
WACO-MCGREGOR  SUNNY     81  55  41 NE7       30.01F
HILLSBORO      MOSUNNY   80  56  43 E5        30.01F
CORSICANA      MOSUNNY   79  59  50 E6        30.02F
MEXIA          MOSUNNY   79  60  53 E3        30.00F
HEARNE         MOSUNNY   79  59  50 CALM      30.01S
CAMERON        MOSUNNY   80  60  50 CALM      30.00F
TEMPLE         MOSUNNY   81  57  44 E5        30.00S
KILLEEN        PTSUNNY   81  55  41 E7        30.01S
KILLEEN-SKYLRK SUNNY     79  55  44 E8        30.01S
FORT HOOD      MOSUNNY   83  57  41 NE6       30.01S
GATESVILLE     MOSUNNY   81  57  44 CALM      30.03S
HAMILTON       MOSUNNY   80  54  40 E5        30.03S
LAMPASAS       MOSUNNY   78  57  48 CALM      30.01F
$$

TXZ095>097-106>112-122>126-135>138-148>153-164>167-202300-
EAST TEXAS

CITY           SKY/WX    TMP DP  RH WIND       PRES   REMARKS
PARIS          SUNNY     79  57  47 CALM      30.03S
SULPHUR SPRNGS   N/A     78  59  50 CALM      30.04S
MOUNT PLEASANT SUNNY     78  56  47 CALM      30.04S
MINEOLA        SUNNY     79  57  47 CALM      30.04S
TYLER          SUNNY     79  54  41 NE6       30.02S
LONGVIEW       SUNNY     78  51  38 E6        30.02S
MARSHALL       SUNNY     78  53  40 CALM      30.04F
ATHENS         SUNNY     77  54  44 E5        30.01S
PALESTINE      MOSUNNY   78  59  52 CALM      30.03S
JACKSONVILLE   SUNNY     76  53  44 NE3       30.05S
HENDERSON      SUNNY     78  51  39 CALM      30.04S
NACOGDOCHES    MOSUNNY   75  55  50 E5        30.03S
LUFKIN         MOSUNNY   80  59  48 NE5       30.01F
$$

SUPPLEMENTAL OBSERVATIONS (CENTRAL)

CITY           SKY/WX    TMP DP  RH WIND       PRES   REMARKS
LAKE TEXOMA      N/A     79  61  53 NW3         N/A
CADDO GRASSLND   N/A     79  59  50 S3          N/A
PAT MAYSE LAKE   N/A     79  59  50 SE1         N/A
CEDAR HILL       N/A     82  57  42 N1          N/A
ATHENS           N/A     81  54  39 E6          N/A
PALESTINE        N/A     77  59  53 SE2         N/A
LAKE LIMESTONE   N/A    N/A N/A N/A N5          N/A
MCGREGOR         N/A     81  55  41 E5          N/A
TEMPLE           N/A     81  57  44 E6          N/A
$$

SUPPLEMENTAL OBSERVATIONS (WEST)

CITY           SKY/WX    TMP DP  RH WIND       PRES   REMARKS
MILLERS CREEK    N/A     81  59  47 E2          N/A
POSSUM KINGDOM   N/A     82  55  39 E6          N/A
LBJ GRASSLAND    N/A     81  57  44 S1          N/A
GRANBURY         N/A     82  55  39 E5          N/A
COMANCHE         N/A     79  55  44 SE6         N/A
HAMBY            N/A     82  55  39 SE6         N/A
IVIE RESERVOIR   N/A     81  52  36 SE8G17      N/A
COLORADO BEND    N/A     79  52  38 E6          N/A
$$

SUPPLEMENTAL OBSERVATIONS (EAST)

CITY           SKY/WX    TMP DP  RH WIND       PRES   REMARKS
TEXARKANA        N/A     79  55  44 S2          N/A
LINDEN           N/A     79  54  41 SE1         N/A
LUFKIN           N/A     79  57  47 MISG        N/A
N SABINE NF      N/A     73  50  43 MISG        N/A
$$

SUPPLEMENTAL OBSERVATIONS ARE A COLLECTION OF AUTOMATED INSTRUMENTS
THAT ARE MAINTAINED BY A VARIETY OF FEDERAL AND STATE AGENCIES.
CERTAIN ELEMENTS...SUCH AS HUMIDITY VALUES AND SUSTAINED WIND
SPEEDS...MAY BE APPROXIMATED.



USA.gov is the U.S. government's official web portal to all federal, state and local government web resources and services.